World > North America > United States > Ohio   City of Akron, Ohio

Akron, Ohio Regional Weather

Lat: 41.08N, Lon: 81.52W
Wx Zone: OHZ021Web Search

Ads allow us to feed your daily addiction for the world's greatest weather information. We're determined to offer quality sponsors, in the least annoying way possible.

Feedback
Akron Weather Map
UTC Time: 3/5/2021, 10:56
Your Time:

Akron, OH Regional Weather

Expires:202103051100;;501353
ASUS41 KCLE 051012
RWRCLE
OHIO REGIONAL WEATHER ROUNDUP
NATIONAL WEATHER SERVICE WILMINGTON, OH
500 AM EST FRI MAR 05 2021

NOTE: "FAIR" INDICATES FEW OR NO CLOUDS BELOW 12,000 FEET WITH NO
SIGNIFICANT WEATHER AND/OR OBSTRUCTIONS TO VISIBILITY.


OHZ009>014-019>023-028>033-038-089-051100-
   NORTHEAST OHIO
  
CITY           SKY/WX    TMP DP  RH WIND       PRES   REMARKS
CLE-HOPKINS    FAIR      25  10  53 NW10      30.22R WCI  15          
CLE-LAKEFRONT  FAIR      28  13  53 NW17      30.22S WCI  16          
CUY CO. ARPT   FAIR      24  13  63 NW8       30.22S WCI  14          
LORAIN-ELYRIA  FAIR      24  13  62 N5        30.24S WCI  18          
ASHTABULA      FAIR      24  15  68 NW10      30.18R WCI  14          
AKRON-CANTON   FAIR      19  12  74 NW6       30.19F WCI  11          
WOOSTER        FAIR      18  14  84 W5        30.22R WCI  11          
MANSFIELD      FAIR      20  16  84 W5        30.21S WCI  13          
YOUNGSTOWN     MOCLDY    22  12  65 W7        30.17R WCI  13          
$$
 

SKY/WX - Weather  TMP - Temperature  DP - Dew Point  RH - Relative Humidity
WIND - Wind Direction/Speed PRES - Barometric Pressure VSB - Visibility
WCI - Wind Chill Index E13G22 Wind - East Wind 13 mph/Gusts of 22 mph